FW7127 Weather Reports


Display with metric or nautical units.
time (UTC)temp
F
wind
direction
speed
MPH
gust
MPH
rain 1hr
in
rain 24hr
in
rain mn
in
humidity
%
barometer
mb
20260505211409 82 163 7.0 18.0 0.00 0.00 0.00 79 1008.3
20260505210904 82 148 7.0 18.0 0.00 0.00 0.00 80 1008.2
20260505210402 83 167 10.0 18.0 0.00 0.00 0.00 80 1008.3
20260505205858 83 170 8.0 18.0 0.00 0.00 0.00 79 1008.5
20260505205357 84 183 8.0 17.0 0.00 0.00 0.00 77 1008.4
20260505204853 84 211 14.0 21.0 0.00 0.00 0.00 76 1008.5
20260505204351 84 166 9.0 15.0 0.00 0.00 0.00 76 1008.7
20260505203848 84 180 8.0 17.0 0.00 0.00 0.00 77 1008.8
20260505203344 84 170 9.0 21.0 0.00 0.00 0.00 76 1008.8
20260505202841 84 187 11.0 20.0 0.00 0.00 0.00 75 1008.8
20260505202337 83 201 12.0 20.0 0.00 0.00 0.00 76 1009.0
20260505201834 84 171 9.0 16.0 0.00 0.00 0.00 77 1009.0
20260505201331 84 203 11.0 14.0 0.00 0.00 0.00 78 1009.0
20260505200830 84 176 7.0 18.0 0.00 0.00 0.00 76 1009.2
20260505200326 84 203 15.0 20.0 0.00 0.00 0.00 76 1009.0
20260505195822 84 192 7.0 22.0 0.00 0.00 0.00 78 1009.0
20260505195319 83 166 16.0 22.0 0.00 0.00 0.00 77 1009.5
20260505194816 83 199 9.0 17.0 0.00 0.00 0.00 78 1009.5
20260505194313 83 204 12.0 17.0 0.00 0.00 0.00 78 1009.4
20260505193808 82 181 4.0 20.0 0.00 0.00 0.00 78 1009.7
20260505193307 82 197 10.0 16.0 0.00 0.00 0.00 79 1009.7
20260505192805 82 187 11.0 22.0 0.00 0.00 0.00 79 1009.8
20260505192305 83 162 12.0 14.0 0.00 0.00 0.00 81 1009.8
20260505191800 82 136 11.0 15.0 0.00 0.00 0.00 82 1009.8
20260505191258 82 201 6.0 13.0 0.00 0.00 0.00 81 1009.9
20260505190754 83 193 11.0 14.0 0.00 0.00 0.00 79 1010.0
20260505190249 83 186 7.0 11.0 0.00 0.00 0.00 81 1009.9
20260505185746 83 209 8.0 14.0 0.00 0.00 0.00 81 1009.8
20260505185242 82 215 8.0 12.0 0.00 0.00 0.00 83 1010.0
20260505184738 81 215 13.0 15.0 0.00 0.00 0.00 82 1010.2
20260505184236 81 192 5.0 13.0 0.00 0.00 0.00 82 1010.4
20260505183732 80 170 7.0 14.0 0.00 0.00 0.00 82 1010.3
20260505183230 82 174 10.0 17.0 0.00 0.00 0.00 81 1010.2
20260505182726 82 164 6.0 18.0 0.00 0.00 0.00 82 1010.1
20260505182223 81 196 9.0 14.0 0.00 0.00 0.00 82 1010.2
20260505181720 80 212 10.0 20.0 0.00 0.00 0.00 82 1010.4
20260505181218 80 191 11.0 19.0 0.00 0.00 0.00 83 1010.3
20260505180714 80 209 12.0 14.0 0.00 0.00 0.00 83 1010.4
20260505180211 80 168 7.0 14.0 0.00 0.00 0.00 83 1010.3
20260505175706 80 161 12.0 15.0 0.00 0.00 0.00 83 1010.4
20260505175203 80 197 11.0 15.0 0.00 0.00 0.00 84 1010.4
20260505174659 81 186 7.0 17.0 0.00 0.00 0.00 83 1010.4
20260505174156 80 212 11.0 17.0 0.00 0.00 0.00 82 1010.4
20260505173653 81 189 10.0 12.0 0.00 0.00 0.00 82 1010.7
20260505173150 80 225 9.0 15.0 0.00 0.00 0.00 83 1010.7
20260505172647 80 206 10.0 13.0 0.00 0.00 0.00 84 1010.6
20260505172144 80 173 11.0 14.0 0.00 0.00 0.00 84 1010.7
20260505171643 79 192 4.0 14.0 0.00 0.00 0.00 85 1010.7
20260505171141 79 204 5.0 16.0 0.00 0.00 0.00 84 1010.5
20260505170638 79 200 12.0 13.0 0.00 0.00 0.00 85 1010.7
20260505170134 79 227 7.0 15.0 0.00 0.00 0.00 85 1010.6
20260505165629 78 206 6.0 16.0 0.00 0.00 0.00 85 1010.7
20260505165126 78 212 9.0 19.0 0.00 0.00 0.00 86 1010.8
20260505164621 78 210 14.0 18.0 0.00 0.00 0.00 86 1010.8
20260505164119 78 186 12.0 16.0 0.00 0.00 0.00 86 1010.7
20260505163617 79 207 8.0 15.0 0.00 0.00 0.00 85 1010.7
20260505163114 79 193 12.0 14.0 0.00 0.00 0.00 86 1010.8
20260505162612 78 172 10.0 21.0 0.00 0.00 0.00 86 1010.8
20260505162109 78 201 15.0 20.0 0.00 0.00 0.00 87 1011.0
20260505161606 78 165 9.0 14.0 0.00 0.00 0.00 88 1010.9
20260505161103 78 228 13.0 16.0 0.00 0.00 0.00 88 1010.8
20260505160601 78 171 8.0 19.0 0.00 0.00 0.00 88 1010.6
20260505153038 76 215 7.0 14.0 0.00 0.00 0.00 91 1010.8
20260505152535 76 216 12.0 18.0 0.00 0.00 0.00 92 1010.7
20260505152030 76 209 11.0 13.0 0.00 0.00 0.00 92 1010.7
20260505151525 75 196 8.0 15.0 0.00 0.00 0.00 92 1010.9
20260505151023 75 213 11.0 21.0 0.00 0.00 0.00 92 1010.6
20260505150519 76 185 5.0 15.0 0.00 0.00 0.00 93 1010.5
20260505140444 73 179 10.0 11.0 0.00 0.00 0.00 96 1010.2
20260505124857 70 173 4.0 8.0 0.00 0.00 0.00 99 1010.2
20260505124355 70 177 4.0 11.0 0.00 0.00 0.00 99 1010.3
20260505123850 70 181 5.0 9.0 0.00 0.00 0.00 99 1010.2
20260505123347 69 160 5.0 8.0 0.00 0.00 0.00 99 1010.2
20260505122843 69 169 6.0 10.0 0.00 0.00 0.00 99 1010.1
20260505122341 69 170 6.0 10.0 0.00 0.00 0.00 99 1010.2
20260505121837 69 165 4.0 8.0 0.00 0.00 0.00 99 1010.2
20260505121334 69 162 3.0 7.0 0.00 0.00 0.00 99 1009.9
20260505120830 69 162 3.0 8.0 0.00 0.00 0.00 99 1009.9
20260505120327 69 197 4.0 8.0 0.00 0.00 0.00 99 1010.0
20260505115826 69 190 4.0 7.0 0.00 0.00 0.00 99 1010.0
20260505115323 69 167 4.0 6.0 0.00 0.00 0.00 99 1009.7
20260505114821 69 162 4.0 6.0 0.00 0.00 0.00 98 1010.0
20260505114317 68 174 3.0 7.0 0.00 0.00 0.00 98 1010.0
20260505113813 68 196 5.0 7.0 0.00 0.00 0.00 98 1009.8
20260505113309 68 170 3.0 9.0 0.00 0.00 0.00 98 1009.6
20260505112805 68 162 6.0 7.0 0.00 0.00 0.00 98 1009.7
20260505112305 68 163 4.0 6.0 0.00 0.00 0.00 98 1009.6
20260505111759 68 176 4.0 8.0 0.00 0.00 0.00 98 1009.6
20260505111254 68 179 4.0 9.0 0.00 0.00 0.00 98 1009.6
20260505110750 68 177 5.0 9.0 0.00 0.00 0.00 98 1009.6
20260505110248 68 160 8.0 9.0 0.00 0.00 0.00 98 1009.8
20260505101722 68 180 5.0 11.0 0.00 0.00 0.00 98 1009.6
20260505101218 68 178 5.0 9.0 0.00 0.00 0.00 98 1009.6
20260505100715 68 169 5.0 8.0 0.00 0.00 0.00 98 1009.8
20260505100212 68 195 7.0 8.0 0.00 0.00 0.00 97 1009.9
20260505095707 68 187 7.0 7.0 0.00 0.00 0.00 97 1009.8
20260505095205 68 176 4.0 9.0 0.00 0.00 0.00 97 1010.0
20260505094701 68 166 6.0 10.0 0.00 0.00 0.00 97 1009.9
20260505094157 68 179 4.0 10.0 0.00 0.00 0.00 97 1009.6
20260505093653 68 175 3.0 9.0 0.00 0.00 0.00 97 1009.8
20260505093151 68 174 5.0 8.0 0.00 0.00 0.00 97 1009.7
20260505092648 68 176 4.0 9.0 0.00 0.00 0.00 97 1009.8
20260505092147 68 177 5.0 8.0 0.00 0.00 0.00 97 1010.1
20260505091643 68 186 4.0 7.0 0.00 0.00 0.00 97 1010.2
20260505091141 68 192 6.0 7.0 0.00 0.00 0.00 97 1010.3
20260505090638 69 178 4.0 8.0 0.00 0.00 0.00 97 1009.9
20260505090137 69 156 3.0 7.0 0.00 0.00 0.00 96 1009.8
20260505085634 69 172 4.0 8.0 0.00 0.00 0.00 96 1010.0
20260505085132 69 187 4.0 9.0 0.00 0.00 0.00 96 1010.1
20260505084629 69 177 5.0 9.0 0.00 0.00 0.00 96 1010.3
20260505084128 69 210 6.0 8.0 0.00 0.00 0.00 96 1010.1
20260505083625 69 179 6.0 11.0 0.00 0.00 0.00 96 1010.2
20260505083121 69 187 4.0 9.0 0.00 0.00 0.00 96 1010.3
20260505082617 69 188 5.0 9.0 0.00 0.00 0.00 96 1010.3
20260505082114 69 185 4.0 10.0 0.00 0.00 0.00 96 1010.6
20260505081610 69 178 7.0 11.0 0.00 0.00 0.00 96 1010.6
20260505081108 69 192 3.0 14.0 0.00 0.00 0.00 96 1010.5
20260505080604 69 171 6.0 13.0 0.00 0.00 0.00 96 1010.6
20260505075556 69 200 7.0 10.0 0.00 0.00 0.00 95 1010.6
20260505075053 69 197 4.0 8.0 0.00 0.00 0.00 95 1010.8
20260505074550 69 199 3.0 7.0 0.00 0.00 0.00 95 1010.8
20260505074047 69 207 5.0 10.0 0.00 0.00 0.00 95 1010.8
20260505073544 68 195 6.0 7.0 0.00 0.00 0.00 95 1011.0
20260505073044 68 202 5.0 8.0 0.00 0.00 0.00 95 1011.0
20260505072538 68 180 6.0 12.0 0.00 0.00 0.00 95 1011.0
20260505072035 68 197 7.0 9.0 0.00 0.00 0.00 95 1010.9
20260505071530 69 187 4.0 9.0 0.00 0.00 0.00 94 1011.2
20260505071029 69 197 5.0 9.0 0.00 0.00 0.00 94 1011.0
20260505070526 69 182 5.0 10.0 0.00 0.00 0.00 94 1011.1
20260505070022 69 181 5.0 12.0 0.00 0.00 0.00 94 1010.9
20260505065518 69 172 4.0 13.0 0.00 0.00 0.00 94 1011.1
20260505065014 69 189 5.0 14.0 0.00 0.00 0.00 94 1011.0
20260505064511 69 174 6.0 12.0 0.00 0.00 0.00 93 1011.2
20260505064010 69 172 6.0 14.0 0.00 0.00 0.00 93 1011.3
20260505063507 69 165 7.0 11.0 0.00 0.00 0.00 93 1011.2
20260505063002 69 175 6.0 15.0 0.00 0.00 0.00 93 1011.2
20260505062459 69 180 4.0 13.0 0.00 0.00 0.00 93 1011.2
20260505061956 69 161 7.0 13.0 0.00 0.00 0.00 93 1011.3
20260505061454 69 171 7.0 12.0 0.00 0.00 0.00 92 1011.5
20260505060951 69 180 5.0 13.0 0.00 0.00 0.00 92 1011.4
20260505060449 69 166 8.0 12.0 0.00 0.00 0.00 92 1011.3
20260505055945 69 173 5.0 14.0 0.00 0.00 0.00 92 1011.3
20260505055441 69 174 8.0 13.0 0.00 0.00 0.00 92 1011.3
20260505054938 69 187 9.0 16.0 0.00 0.00 0.00 91 1011.5
20260505054435 69 171 13.0 13.0 0.00 0.00 0.00 91 1011.4
20260505053933 69 190 8.0 16.0 0.00 0.00 0.00 91 1011.5
20260505053430 69 166 7.0 11.0 0.00 0.00 0.00 91 1011.3
20260505052927 69 190 10.0 14.0 0.00 0.00 0.00 91 1011.5
20260505052424 70 174 6.0 14.0 0.00 0.00 0.00 90 1011.6
20260505051921 70 166 7.0 16.0 0.00 0.00 0.00 90 1011.5
20260505051418 70 176 9.0 16.0 0.00 0.00 0.00 90 1011.7
20260505050916 70 173 7.0 17.0 0.00 0.00 0.00 90 1011.7
20260505050414 70 166 15.0 15.0 0.00 0.00 0.00 90 1011.7
20260505041341 71 174 8.0 13.0 0.00 0.00 0.00 87 1012.1
20260505040839 71 170 14.0 16.0 0.00 0.00 0.00 87 1012.1
20260505040336 71 174 8.0 16.0 0.00 0.00 0.00 86 1012.1
20260505035833 71 165 9.0 19.0 0.00 0.00 0.00 86 1012.1
20260505035328 71 174 6.0 13.0 0.00 0.00 0.00 86 1012.2
20260505034826 71 176 8.0 17.0 0.00 0.00 0.00 86 1012.4
20260505034322 71 175 7.0 17.0 0.00 0.00 0.00 86 1012.1
20260505033820 71 168 9.0 15.0 0.00 0.00 0.00 85 1012.1
20260505033316 71 166 13.0 17.0 0.00 0.00 0.00 85 1012.0
20260505032815 71 160 9.0 15.0 0.00 0.00 0.00 85 1011.9
20260505032311 71 165 11.0 19.0 0.00 0.00 0.00 85 1012.0
20260505031808 71 177 11.0 17.0 0.00 0.00 0.00 85 1012.3
20260505031304 71 163 11.0 17.0 0.00 0.00 0.00 85 1012.2
20260505030802 71 181 7.0 16.0 0.00 0.00 0.00 84 1012.2
20260505030258 71 170 10.0 17.0 0.00 0.00 0.00 84 1012.1
20260505025753 71 163 12.0 18.0 0.00 0.00 0.00 84 1012.1
20260505025251 71 165 9.0 17.0 0.00 0.00 0.00 84 1012.0
20260505024749 72 165 8.0 20.0 0.00 0.00 0.00 84 1012.2
20260505024246 72 165 12.0 18.0 0.00 0.00 0.00 83 1012.1
20260505023744 72 163 7.0 17.0 0.00 0.00 0.00 83 1012.1
20260505023241 72 167 14.0 15.0 0.00 0.00 0.00 83 1011.9
20260505022738 72 170 13.0 19.0 0.00 0.00 0.00 83 1011.9
20260505022235 72 161 12.0 14.0 0.00 0.00 0.00 83 1012.0
20260505021731 72 185 11.0 16.0 0.00 0.00 0.00 82 1011.8
20260505021229 72 174 13.0 15.0 0.00 0.00 0.00 82 1012.0
20260505020724 73 178 7.0 15.0 0.00 0.00 0.00 82 1011.8
20260505020219 73 159 5.0 15.0 0.00 0.00 0.00 81 1011.6
20260505015717 73 170 10.0 14.0 0.00 0.00 0.00 81 1011.7
20260505015214 73 166 10.0 15.0 0.00 0.00 0.00 81 1011.6
20260505014711 73 177 10.0 16.0 0.00 0.00 0.00 81 1011.4
20260505014209 73 181 10.0 13.0 0.00 0.00 0.00 81 1011.4
20260505013705 73 169 8.0 15.0 0.00 0.00 0.00 80 1011.4
20260505013202 73 168 12.0 13.0 0.00 0.00 0.00 80 1011.4
20260505012700 74 145 9.0 15.0 0.00 0.00 0.00 80 1011.2
20260505012157 74 170 9.0 13.0 0.00 0.00 0.00 80 1011.4
20260505011653 74 182 7.0 16.0 0.00 0.00 0.00 80 1011.2
20260505011150 74 164 10.0 17.0 0.00 0.00 0.00 79 1011.2
20260505010645 74 171 7.0 13.0 0.00 0.00 0.00 79 1011.3
20260505010143 74 169 7.0 12.0 0.00 0.00 0.00 79 1011.0
20260505005638 75 155 7.0 11.0 0.00 0.00 0.00 78 1011.1
20260505005136 75 174 7.0 14.0 0.00 0.00 0.00 78 1011.1
20260505004633 75 183 13.0 14.0 0.00 0.00 0.00 77 1011.4
20260505004129 75 179 7.0 16.0 0.00 0.00 0.00 77 1011.1
20260505003627 76 164 7.0 15.0 0.00 0.00 0.00 76 1011.4
20260505003124 76 171 7.0 15.0 0.00 0.00 0.00 76 1011.3
20260505002620 76 180 9.0 13.0 0.00 0.00 0.00 76 1011.5
20260505002118 76 165 11.0 14.0 0.00 0.00 0.00 76 1011.4
20260505001615 76 183 6.0 17.0 0.00 0.00 0.00 76 1011.5
20260505001113 76 164 10.0 12.0 0.00 0.00 0.00 76 1011.4
20260505000609 76 170 7.0 16.0 0.00 0.00 0.00 75 1011.7
20260505000108 76 191 8.0 14.0 0.00 0.00 0.00 75 1011.6
20260504235604 76 171 9.0 14.0 0.00 0.00 0.00 75 1011.4
20260504235100 76 165 10.0 17.0 0.00 0.00 0.00 74 1011.5
20260504234557 77 163 12.0 19.0 0.00 0.00 0.00 74 1011.6
20260504234054 77 169 8.0 18.0 0.00 0.00 0.00 74 1011.7
20260504233550 77 168 11.0 19.0 0.00 0.00 0.00 73 1011.4
20260504233047 77 162 16.0 19.0 0.00 0.00 0.00 73 1011.7
20260504232544 77 177 10.0 16.0 0.00 0.00 0.00 73 1011.6
20260504232042 77 173 11.0 17.0 0.00 0.00 0.00 73 1011.7
20260504231538 77 164 10.0 18.0 0.00 0.00 0.00 73 1011.7
20260504231034 77 188 5.0 19.0 0.00 0.00 0.00 72 1011.8
20260504230530 78 160 13.0 19.0 0.00 0.00 0.00 72 1012.0
20260504230029 78 162 13.0 18.0 0.00 0.00 0.00 71 1012.0
20260504225526 78 178 14.0 20.0 0.00 0.00 0.00 71 1011.9
20260504225023 78 179 10.0 16.0 0.00 0.00 0.00 71 1012.0
20260504224520 79 180 12.0 21.0 0.00 0.00 0.00 70 1011.9
20260504224017 79 164 13.0 19.0 0.00 0.00 0.00 70 1011.9
20260504223513 79 178 10.0 18.0 0.00 0.00 0.00 69 1012.0
20260504223009 79 160 11.0 17.0 0.00 0.00 0.00 70 1012.1
20260504222506 79 180 10.0 18.0 0.00 0.00 0.00 71 1012.1
20260504222004 78 143 7.0 18.0 0.00 0.00 0.00 72 1012.1
20260504221501 79 179 8.0 14.0 0.00 0.00 0.00 71 1012.1
20260504220958 78 175 5.0 18.0 0.00 0.00 0.00 71 1012.2
20260504220454 78 168 12.0 22.0 0.00 0.00 0.00 71 1012.3
20260504215951 78 147 7.0 15.0 0.00 0.00 0.00 71 1012.3
20260504215448 79 173 12.0 17.0 0.00 0.00 0.00 70 1012.1
20260504214944 79 184 8.0 17.0 0.00 0.00 0.00 70 1012.2
20260504214441 79 129 9.0 15.0 0.00 0.00 0.00 70 1012.3
20260504213938 80 149 12.0 16.0 0.00 0.00 0.00 69 1012.5
20260504213433 79 169 12.0 15.0 0.00 0.00 0.00 70 1012.7
20260504212931 79 167 12.0 18.0 0.00 0.00 0.00 68 1012.8
20260504212427 79 163 16.0 20.0 0.00 0.00 0.00 68 1012.6
20260504211925 79 153 5.0 14.0 0.00 0.00 0.00 68 1012.8